Regional Weather Roundup
Issued by NWS Bismarck, ND

Home | Current Version | Previous Version | Text Only | Print | Product List | Glossary On
Versions: 1 2 3 4 5 6 7 8 9 10 11 12 13 14 15 16 17 18 19 20 21 22 23 24 25 26 27 28 29 30 31 32 33 34 35 36 37 38 39 40 41 42 43 44 45 46 47 48 49 50
000
ASUS43 KBIS 010820
RWRBIS

NWR BROADCAST TEXT
NATIONAL WEATHER SERVICE BISMARCK ND
200 AM CST SUN MAR 01 2015

NOTE: "FAIR" INDICATES FEW OR NO CLOUDS BELOW 12,000 FEET WITH NO
SIGNIFICANT WEATHER AND/OR OBSTRUCTIONS TO VISIBILITY.


CITY           SKY/WX    TMP DP  RH WIND       PRES   REMARKS
WILLISTON      CLOUDY    11   4  73 SW6       30.14S WCI   1
MINOT          CLOUDY     7  -1  70 SW12      30.11S WCI  -8
MINOT AFB      PTCLDY     6   0  76 W10       30.11S WCI  -8
BISMARCK       CLEAR      5   0  79 SW8       30.19F WCI  -8
DICKINSON      PTCLDY    11   3  70 W14       30.11S WCI  -5
GARRISON         N/A      0  -4  83 W6        30.13S WCI -12
HETTINGER ARPT CLEAR      4  -1  80 W6        30.16S WCI  -7
JAMESTOWN      CLEAR      2  -4  76 W8        30.16F WCI -12
BEACH          CLOUDY    12   7  79 W12       30.15R WCI  -2
CARRINGTON     FAIR       0  -2  92 MISG      30.15S
CROSBY         CLOUDY    12  10  92 SW10      30.11S FOG     WCI  -1
HARVEY         FAIR      -2  -6  84 W8        30.14S WCI -17
HAZEN          CLOUDY     1  -2  85 W6        30.18R WCI -10
LINTON         FAIR      -4  -8  84 CALM      30.20S
MANDAN         FAIR       3   0  85 W10       30.16F WCI -12
OAKES            N/A      1  -2  85 W7        30.22S WCI -11
RUGBY          FAIR      -2  -6  84 SW10      30.12S WCI -19
TIOGA          FLURRIES   9   5  85 W10       30.12S WCI  -6
WATFORD CITY   PTSUNNY    9   5  85 SW9       30.12S WCI  -5
$$

CITY           SKY/WX    TMP DP  RH WIND       PRES   REMARKS
GRAND FORKS    CLEAR     -1  -5  82 W7        30.16F WCI -14
GRAND FORKS AF CLEAR      5  -2  73 W12       30.16S WCI -10
DEVILS LAKE    CLEAR      0  -8  71 SW10      30.12F WCI -17
FARGO          CLEAR      3  -3  76 W8        30.22R WCI -10
CANDO          FAIR      -4  -9  77 W8        30.12S WCI -19
CAVALIER       FAIR       5   0  78 W12       30.12S WCI -11
GWINNER        SUNNY      5   0  78 W12       30.22S WCI -11
ROLLA          FAIR       3   0  85 W10       30.06S WCI -12
WALHALLA         N/A      5   0  78 W13       30.10S WCI -12
$$

CITY           SKY/WX    TMP DP  RH WIND       PRES   REMARKS
ABERDEEN       PTCLDY     5   0  79 W6        30.27R WCI  -6
MOBRIDGE       PTCLDY     5   2  87 CALM      30.19S
BUFFALO          N/A      9   4  80 W10       30.08S WCI  -5
RAPID CITY     CLOUDY    14   9  80 CALM      30.19S
GLASGOW        LGT SNOW  18  15  88 W7        30.17R FOG     WCI   9
SIDNEY         MOCLDY    18   9  68 SW6       30.19R WCI   9
WOLF POINT     CLOUDY    20  14  77 W13       30.18R WCI   7
GLENDIVE       CLOUDY    18  10  73 W9        30.17R WCI   6
MILES CITY     PTCLDY    12   7  80 W6        30.20S WCI   3
BAKER          PTCLDY    13   8  81 W13       30.15S WCI  -2
$$

CITY           SKY/WX    TMP DP  RH WIND       PRES   REMARKS
BILLINGS       PTCLDY    15   9  76 SW6       30.20R WCI   6
GREAT FALLS    CLEAR     10   5  80 SW8       30.23R WCI  -2
REGINA         FLURRIES   5   3  92 NW6       30.11R WCI  -6
ESTEVAN        FLURRIES  10   9  92 W12       30.09R WCI  -4
$$



USA.gov is the U.S. government's official web portal to all federal, state and local government web resources and services.